CDT,Max TemperatureF,Mean TemperatureF,Min TemperatureF,Max Dew PointF,MeanDew PointF,Min DewpointF,Max Humidity, Mean Humidity, Min Humidity, Max Sea Level PressureIn, Mean Sea Level PressureIn, Min Sea Level PressureIn, Max VisibilityMiles, Mean VisibilityMiles, Min VisibilityMiles, Max Wind SpeedMPH, Mean Wind SpeedMPH, Max Gust SpeedMPH,PrecipitationIn, CloudCover, Events, WindDirDegrees
2013-7-1,77,66,56,53,49,46,75,54,33,30.10,30.06,30.01,10,10,10,21,12,28,0.00,0,,36
2013-7-2,75,64,54,53,50,39,88,64,30,30.11,30.08,30.06,10,10,10,16,9,21,0.00,0,,41
2013-7-3,71,62,54,62,57,52,96,82,68,30.09,30.07,30.04,10,10,4,7,3,,0.00,5,,18
2013-7-4,81,68,54,65,60,53,97,75,46,30.11,30.07,30.04,10,8,0,10,4,16,0.00,2,Fog,167
2013-7-5,82,70,58,67,61,56,94,73,46,30.10,30.06,30.03,10,9,5,13,3,,0.00,0,,163
2013-7-6,84,70,58,67,63,57,95,74,46,30.07,30.04,29.99,10,8,2,9,2,,0.00,1,,161
2013-7-7,86,76,66,72,68,64,95,76,53,30.02,30.00,29.96,10,8,4,10,6,,0.00,0,,187
2013-7-8,87,78,70,74,71,64,93,78,60,30.03,29.99,29.96,10,9,4,18,9,24,0.21,4,Rain-Thunderstorm,225
2013-7-9,84,77,70,76,73,68,95,87,71,30.02,29.96,29.89,10,7,2,18,3,26,0.05,2,Rain-Thunderstorm,219
2013-7-10,82,72,61,73,65,54,96,72,42,30.03,29.94,29.87,10,9,3,15,5,21,0.00,2,,342
2013-7-11,80,68,58,61,56,49,94,65,34,30.14,30.10,30.04,10,10,5,14,2,18,0.00,1,,57
2013-7-12,82,67,52,62,52,48,91,60,33,30.17,30.13,30.09,10,10,10,8,1,,0.00,0,,114
2013-7-13,83,70,56,64,58,54,93,67,40,30.18,30.14,30.11,10,9,4,9,5,,0.00,0,,125
2013-7-14,87,75,63,70,65,60,91,70,46,30.23,30.19,30.16,10,10,5,10,6,,0.00,1,,104
2013-7-15,89,78,68,74,70,65,92,74,52,30.29,30.26,30.23,10,9,5,9,4,,0.00,0,,105
2013-7-16,89,80,70,75,72,69,95,80,57,30.32,30.29,30.26,10,8,2,9,3,,0.00,1,,191
2013-7-17,92,80,68,75,71,66,95,75,47,30.34,30.28,30.21,10,9,4,9,2,,0.00,0,,237
2013-7-18,93,80,69,75,71,67,95,75,43,30.22,30.11,29.98,10,9,3,14,3,18,0.00,0,,224
2013-7-19,92,82,71,72,69,66,91,68,42,29.98,29.88,29.79,10,10,10,22,10,30,0.01,1,Rain-Thunderstorm,233
2013-7-20,86,74,64,68,62,57,93,66,38,29.96,29.90,29.86,10,10,10,12,2,,0.01,1,,4
2013-7-21,84,73,63,70,64,61,93,76,54,29.98,29.93,29.87,10,10,10,17,4,20,0.00,0,,120
2013-7-22,85,74,62,71,65,60,94,75,50,29.90,29.83,29.77,10,9,4,20,2,25,0.12,1,Rain-Thunderstorm,219
2013-7-23,77,67,58,64,58,53,95,71,45,30.00,29.86,29.70,10,10,7,14,8,21,0.04,2,Rain,359
2013-7-24,73,62,51,56,52,49,95,71,41,30.09,30.05,30.00,10,10,10,9,4,,0.00,1,,42
2013-7-25,78,64,49,61,55,48,95,72,43,30.12,30.08,30.05,10,10,10,9,2,,0.00,0,,200
2013-7-26,76,67,57,67,61,54,94,83,55,30.04,29.97,29.89,10,10,2,14,7,21,0.03,5,Rain,217
2013-7-27,64,58,50,55,49,44,94,73,48,29.97,29.94,29.91,10,10,10,17,7,24,0.00,5,,301
2013-7-28,69,60,50,52,49,46,92,72,44,30.06,29.97,29.90,10,10,7,14,8,24,0.01,5,Rain,275
2013-7-29,76,60,44,61,52,43,95,73,45,30.18,30.13,30.06,10,10,10,10,2,16,0.00,1,,264
2013-7-30,68,62,56,63,59,54,96,88,74,30.18,30.14,30.08,10,7,2,13,6,16,0.06,6,Rain,121
2013-7-31,77,68,60,65,63,58,97,85,64,30.07,30.03,29.98,10,7,0,9,4,,0.01,6,Fog-Rain,329